This is the latest recevied weather packets stored in our database for station/object AC2JK-WX. If no packets are shown the sender has not sent any weather packets the latest 10 day(s).
| Time | Temp. | Humidity | Pressure | Rain* | Wind** | Luminosity | Snow |
|---|---|---|---|---|---|---|---|
| 1777731729 | 7.22° C | 50% | 1016 hPa | 0 mm | - | - | - |
| 1777731429 | 7.22° C | 51% | 1016 hPa | 0 mm | - | - | - |
| 1777731129 | 6.67° C | 56% | 1016 hPa | 0 mm | - | - | - |
| 1777730530 | 6.11° C | 57% | 1016 hPa | 0 mm | - | - | - |
| 1777730229 | 6.11° C | 55% | 1016 hPa | 0 mm | - | - | - |
| 1777729930 | 6.11° C | 55% | 1016 hPa | 0 mm | - | - | - |
| 1777729630 | 6.11° C | 58% | 1016 hPa | 0 mm | - | - | - |
| 1777729330 | 6.11° C | 57% | 1016 hPa | 0 mm | - | - | - |
| 1777729032 | 6.11° C | 59% | 1016 hPa | 0 mm | - | - | - |
| 1777728730 | 6.11° C | 60% | 1016 hPa | 0 mm | - | - | - |
| 1777728430 | 6.11° C | 61% | 1016 hPa | 0 mm | - | - | - |
| 1777728130 | 5.56° C | 62% | 1016 hPa | 0 mm | - | - | - |
| 1777727830 | 5.56° C | 63% | 1016 hPa | 0 mm | - | - | - |
| 1777727529 | 5° C | 63% | 1016 hPa | 0 mm | - | - | - |
| 1777727229 | 5° C | 64% | 1017 hPa | 0 mm | - | - | - |
| 1777726931 | 5° C | 65% | 1017 hPa | 0 mm | - | - | - |
| 1777726630 | 5° C | 65% | 1017 hPa | 0 mm | - | - | - |
| 1777726329 | 5° C | 65% | 1017 hPa | 0 mm | - | - | - |
| 1777726030 | 4.44° C | 67% | 1017 hPa | 0 mm | - | - | - |
| 1777725729 | 4.44° C | 66% | 1017 hPa | 0 mm | - | - | - |
| 1777725429 | 4.44° C | 69% | 1017 hPa | 0 mm | - | - | - |
| 1777725130 | 3.89° C | 68% | 1017 hPa | 0 mm | - | - | - |
| 1777724829 | 3.89° C | 70% | 1017 hPa | 0 mm | - | - | - |
| 1777724529 | 3.89° C | 73% | 1017 hPa | 0 mm | - | - | - |
| 1777724230 | 3.33° C | 75% | 1017 hPa | 0 mm | - | - | - |
* Rain latest hour (hover to see other rain measurements)
** Current wind speed in m/s (hover to see current wind gust speed)